This demonstration page uses our WeatherBlox Daily Observations layout. Learn more.

Left ArrowRight Arrow

39.08367, -84.50855

Hourly Observations for June 1, 2015

Temp ( °F °C ) Dew Point ( °F °C ) Humidity (%) Winds ( mph kmh ) Pressure ( in mb ) Visibility ( mi km ) Precip ( " mm )
12:53 am 00:53 Cloudy 57 13.9 51 10.6 81 81 NE 9 15 30.13 1020 10 16.0934 N/A
1:53 am 01:53 Cloudy 56 13.3 49 9.4 77 77 NE 12 19 30.13 1020 10 16.0934 N/A
2:53 am 02:53 Cloudy 55 12.8 49 9.4 80 80 NE 8 13 30.12 1020 10 16.0934 N/A
3:53 am 03:53 Cloudy 54 12.2 49 9.4 83 83 NNE 9 15 30.12 1020 10 16.0934 N/A
4:53 am 04:53 Cloudy 54 12.2 48 8.9 80 80 ENE 10 17 30.13 1020 10 16.0934 N/A
5:53 am 05:53 Cloudy 53 11.7 49 9.4 86 86 ENE 6 9 30.14 1021 10 16.0934 N/A
6:53 am 06:53 Cloudy 53 11.7 48 8.9 83 83 NE 8 13 30.14 1021 10 16.0934 N/A
7:53 am 07:53 Cloudy 53 11.7 48 8.9 83 83 ENE 10 17 30.15 1021 10 16.0934 N/A
8:53 am 08:53 Cloudy with Light Rain 53 11.7 49 9.4 86 86 NE 8 13 30.16 1021 10 16.0934 N/A
9:29 am 09:29 Cloudy with Light Rain 53 11.7 50 10 89 89 ENE 6 9 30.18 1022 10 16.0934 N/A
9:53 am 09:53 Cloudy 53 11.7 50 10 89 89 NE 8 13 30.16 1021 10 16.0934 N/A
10:08 am 10:08 Cloudy with Light Rain 54 12 50 10 88 88 NE 10 17 30.15 1021 10 16.0934 N/A
10:53 am 10:53 Cloudy with Light Rain 54 12.2 49 9.4 83 83 NE 9 15 30.15 1021 10 16.0934 0.01 0.254
11:53 am 11:53 Cloudy with Light Rain 53 11.7 50 10 89 89 NNE 7 11 30.16 1021 8 12.87472 0.01 0.254
12:53 pm 12:53 Cloudy with Light Rain 54 12.2 51 10.6 90 90 NNE 8 13 30.16 1022 10 16.0934 0.02 0.508
1:53 pm 13:53 Cloudy with Light Rain 54 12.2 51 10.6 90 90 NE 9 15 30.15 1021 8 12.87472 0.02 0.508
2:53 pm 14:53 Cloudy with Light Rain 55 12.8 52 11.1 90 90 NNE 10 17 30.14 1021 7 11.26538 0.05 1.27
3:25 pm 15:25 Cloudy 56 13.3 52 11.1 87 87 ENE 7 11 30.15 1021 10 16.0934 N/A
3:53 pm 15:53 Cloudy 56 13.3 52 11.1 87 87 NE 7 11 30.14 1021 10 16.0934 N/A
4:01 pm 16:01 Cloudy 56 13.3 52 11.1 87 87 NE 8 13 30.15 1021 10 16.0934 N/A
4:13 pm 16:13 Cloudy 57 13.9 52 11.1 83 83 NNE 8 13 30.15 1021 10 16.0934 N/A
4:25 pm 16:25 Cloudy 57 13.9 52 11.1 83 83 ENE 9 15 30.15 1021 10 16.0934 N/A
4:53 pm 16:53 Cloudy 57 13.9 52 11.1 83 83 NE 8 13 30.13 1020 10 16.0934 N/A
5:53 pm 17:53 Cloudy 58 14.4 52 11.1 81 81 ENE 6 9 30.12 1020 10 16.0934 N/A
6:53 pm 18:53 Cloudy 58 14.4 53 11.7 84 84 NE 9 15 30.12 1020 10 16.0934 N/A
7:53 pm 19:53 Cloudy 63 17 55 13 77 77 N 10 17 30.03 1017 10 16.0934 N/A
8:53 pm 20:53 Cloudy 57 13.9 52 11.1 83 83 NNE 10 17 30.14 1021 10 16.0934 N/A
9:53 pm 21:53 Cloudy 57 13.9 52 11.1 83 83 NE 9 15 30.15 1021 10 16.0934 N/A
10:53 pm 22:53 Cloudy 56 13.3 51 10.6 84 84 NNE 8 13 30.16 1022 10 16.0934 N/A
11:53 pm 23:53 Cloudy 55 12.8 51 10.6 87 87 ENE 9 15 30.16 1022 10 16.0934 N/A

Powered by AerisWeather